Terminal Aerodrome Forecast
Issued by NWS

Home | Current Version | Previous Version | Text Only | Print | Product List | Glossary On
Versions: 1 2 3 4 5 6 7 8 9 10 11 12 13 14 15 16 17 18 19 20 21
000
FTPA31 PHFO 231700
TAFJRF
TAF
PHJR 231731Z 2318/2418 VRB03KT P6SM SCT030 BKN200
     FM232000 09010KT P6SM SCT030 SCT045
     FM240400 VRB03KT P6SM FEW030 SCT045=

USA.gov is the U.S. government's official web portal to all federal, state and local government web resources and services.